Stations météo

Publicité
Bergerac, France (7530): Température de l'air & dewpoint: 01.07.2020 14:00:00 - 07.07.2020 14:00:00 (CEST)Bergerac, France (7530): Température de l'air 5cm: 01.07.2020 14:00:00 - 07.07.2020 14:00:00 (CEST)Bergerac, France (7530): Température de l'air -20cm & Température de l'air -100cm: 01.07.2020 14:00:00 - 07.07.2020 14:00:00 (CEST)Bergerac, France (7530): Vitesse du vent & gusts: 01.07.2020 14:00:00 - 07.07.2020 14:00:00 (CEST)Bergerac, France (7530): Direction du vent: 01.07.2020 14:00:00 - 07.07.2020 14:00:00 (CEST)Bergerac, France (7530): reduced air pressure: 01.07.2020 14:00:00 - 07.07.2020 14:00:00 (CEST)Bergerac, France (7530): visibility: 01.07.2020 14:00:00 - 07.07.2020 14:00:00 (CEST)Bergerac, France (7530): Ensoleillement: 01.07.2020 14:00:00 - 07.07.2020 14:00:00 (CEST)Bergerac, France (7530): Quantités de précipitations: 01.07.2020 14:00:00 - 07.07.2020 14:00:00 (CEST)
Date & Time tt [°C] td [°C] tt 5cm [°C] tt -20cm [°C] tt -100cm [°C] ff [km/h] ff [knt] fx [km/h] fx [knt] dd ppp [hPa] vv [km] sd [min] rr [mm]
07.07.2020 14:00:00 24,8 8,3 34,7 18,8 17,4 8 5 27 14 NNE 1020,6 60 60 0,0
07.07.2020 13:00:00 23,8 9,0 33,3 18,7 17,4 9 5 22 12 NNW 1021,0 20 60 0,0
07.07.2020 12:00:00 23,5 8,4 33,6 18,7 17,4 11 6 21 12 N 1021,4 20 60 0,0
07.07.2020 11:00:00 22,2 10,3 30,1 18,7 17,4 5 3 17 9 NE 1021,4 54 60 0,0
07.07.2020 10:00:00 19,8 11,6 24,7 18,8 17,4 4 2 9 5 ENE 1021,8 47 60 0,0
07.07.2020 09:00:00 15,9 11,5 14,4 19,0 17,4 2 1 7 4 NW 1022,0 19 60 0,0
07.07.2020 08:00:00 12,5 12,0 6,9 19,2 17,4 0 0 3 2 N 1022,1 19 60 0,0
07.07.2020 07:00:00 9,1 8,8 4,4 19,3 17,4 0 0 3 2 N 1022,1 12 15 0,0
07.07.2020 06:00:00 8,8 8,3 4,4 19,5 17,3 2 1 4 2 E 1021,9 14 0 0,0
07.07.2020 05:00:00 9,5 8,6 5,1 19,7 17,3 0 0 4 2 N 1022,1 20 0 0,0
07.07.2020 04:00:00 10,7 9,9 6,2 19,9 17,3 3 1 9 5 E 1022,3 31 0 0,0
07.07.2020 03:00:00 11,9 10,0 7,4 20,1 17,4 8 4 12 7 W 1022,6 36 0 0,0
07.07.2020 02:00:00 13,4 10,9 9,6 20,2 17,3 9 5 11 6 W 1022,8 38 0 0,0
07.07.2020 01:00:00 13,9 11,2 8,7 20,4 17,3 8 4 10 6 SW 1022,9 42 0 0,0
07.07.2020 00:00:00 14,3 10,3 8,7 20,5 17,3 7 4 10 5 WSW 1022,9 57 0 0,0
06.07.2020 23:00:00 16,7 10,1 10,9 20,6 17,3 6 4 13 7 NW 1022,8 43 0 0,0
06.07.2020 22:00:00 18,8 9,6 14,3 20,6 17,3 11 6 22 12 WNW 1022,3 53 20 0,0
06.07.2020 21:00:00 22,3 9,1 21,8 20,6 17,3 14 8 29 16 NW 1021,8 40 60 0,0
06.07.2020 20:00:00 23,8 9,4 24,5 20,6 17,3 19 10 31 17 NW 1021,6 41 60 0,0
06.07.2020 19:00:00 24,6 9,7 27,5 20,5 17,3 19 10 40 22 WNW 1021,6 34 60 0,0
06.07.2020 18:00:00 25,2 11,4 30,9 20,3 17,3 15 8 41 22 NNW 1021,9 36 60 0,0
06.07.2020 17:00:00 25,2 11,0 31,8 20,1 17,3 19 10 36 19 NNW 1021,9 36 60 0,0
06.07.2020 16:00:00 25,1 12,0 32,8 19,9 17,3 16 9 37 20 NW 1022,0 20 60 0,0
06.07.2020 15:00:00 24,3 12,6 32,0 19,7 17,2 16 9 29 16 NNW 1022,2 48 60 0,0
06.07.2020 14:00:00 23,5 13,7 31,5 19,6 17,3 14 8 32 18 NNW 1022,5 55 57 0,0
06.07.2020 13:00:00 22,7 14,3 29,9 19,5 17,3 15 8 32 17 NW 1022,7 60 58 0,0
06.07.2020 12:00:00 20,8 14,2 22,2 19,5 17,3 7 4 27 15 NNW 1022,9 59 37 0,0
06.07.2020 11:00:00 19,6 15,0 19,1 19,6 17,3 10 5 22 12 NW 1023,0 19 30 0,0
06.07.2020 10:00:00 17,0 14,3 17,0 19,6 17,3 13 7 29 16 NNW 1023,1 20 0 0,0
06.07.2020 09:00:00 16,6 14,8 16,1 19,7 17,3 21 11 38 21 NW 1022,9 37 1 0,2
06.07.2020 08:00:00 17,9 16,6 17,7 19,7 17,2 12 7 19 10 WNW 1022,2 17 0 0,0
06.07.2020 07:00:00 17,6 16,5 16,4 19,9 17,3 8 4 11 6 W 1021,9 60 0 0,0
06.07.2020 06:00:00 17,6 15,8 16,6 19,9 17,3 11 6 22 12 NW 1021,8 60 0 0,0
06.07.2020 05:00:00 17,5 16,0 16,8 20,0 17,3 10 6 22 12 NW 1021,7 60 0 0,0
06.07.2020 04:00:00 17,7 16,6 17,3 20,1 17,3 11 6 29 16 WNW 1022,1 17 0 0,0
06.07.2020 03:00:00 17,9 16,4 17,6 20,2 17,3 18 10 31 17 NW 1022,3 39 0 0,0
06.07.2020 02:00:00 18,5 16,7 16,0 20,3 17,3 16 8 25 13 WNW 1022,2 56 0 0,0
06.07.2020 01:00:00 18,7 16,8 16,8 20,4 17,3 13 7 22 12 NW 1022,2 59 0 0,0
06.07.2020 00:00:00 19,6 17,2 17,6 20,4 17,3 11 6 21 11 WNW 1021,8 60 0 0,0
05.07.2020 23:00:00 21,2 17,8 19,5 20,4 17,2 14 8 22 12 WNW 1021,6 59 0 0,0
05.07.2020 22:00:00 22,9 18,4 20,1 20,4 17,3 16 8 22 12 WNW 1020,9 19 7 0,0
05.07.2020 21:00:00 24,7 17,9 24,6 20,3 17,3 10 5 19 11 NNW 1020,4 59 60 0,0
05.07.2020 20:00:00 26,1 17,5 28,0 20,2 17,3 12 7 24 13 NNW 1020,4 55 48 0,0
05.07.2020 19:00:00 26,4 18,5 29,4 20,0 17,3 11 6 27 15 NNW 1020,7 59 32 0,0
05.07.2020 18:00:00 26,6 18,5 29,9 19,8 17,3 16 9 30 16 NNW 1021,1 60 44 0,0
05.07.2020 17:00:00 26,4 18,3 30,9 19,6 17,3 13 7 26 14 N 1021,3 59 22 0,0
05.07.2020 16:00:00 27,4 18,4 32,3 19,3 17,3 10 6 23 13 NNW 1021,4 41 41 0,0
05.07.2020 15:00:00 27,2 18,5 31,6 19,0 17,3 10 6 26 14 W 1021,7 53 57 0,0
05.07.2020 14:00:00 - - - - - - - - - - - - - -
05.07.2020 13:00:00 - - - - - - - - - - - - - -
05.07.2020 12:00:00 - - - - - - - - - - - - - -
05.07.2020 11:00:00 - - - - - - - - - - - - - -
05.07.2020 10:00:00 - - - - - - - - - - - - - -
05.07.2020 09:00:00 - - - - - - - - - - - - - -
05.07.2020 08:00:00 17,0 14,6 12,6 18,8 17,3 3 1 5 3 NE 1023,7 35 60 0,0
05.07.2020 07:00:00 13,3 13,0 10,4 18,9 17,3 4 2 6 3 ENE 1023,7 16 17 0,0
05.07.2020 06:00:00 12,6 12,1 9,6 19,0 17,3 5 3 5 3 E 1023,6 15 0 0,0
05.07.2020 05:00:00 13,3 12,5 10,1 19,2 17,3 3 2 5 3 SE 1023,7 34 0 0,0
05.07.2020 04:00:00 13,9 12,9 10,6 19,3 17,3 3 2 7 4 SSW 1023,8 35 0 0,0
05.07.2020 03:00:00 14,6 13,0 11,1 19,4 17,3 4 2 5 3 W 1024,3 39 0 0,0
05.07.2020 02:00:00 15,9 13,7 11,4 19,5 17,3 5 3 8 5 W 1024,4 50 0 0,0
05.07.2020 01:00:00 16,7 14,2 12,9 19,6 17,3 7 4 9 5 WSW 1024,4 54 0 0,0
05.07.2020 00:00:00 18,0 14,3 15,5 19,6 17,3 9 5 20 11 W 1024,6 55 0 0,0
04.07.2020 23:00:00 19,2 14,2 16,6 19,6 17,3 9 5 19 11 W 1024,3 59 0 0,0
04.07.2020 22:00:00 21,1 14,3 19,1 19,6 17,3 13 7 22 12 WNW 1023,6 18 3 0,0
04.07.2020 21:00:00 23,0 13,7 21,6 19,5 17,3 10 5 22 12 NW 1023,2 60 46 0,0
04.07.2020 20:00:00 24,8 13,0 26,0 19,3 17,3 14 8 24 13 NW 1022,8 35 56 0,0
04.07.2020 19:00:00 25,4 12,9 27,3 19,2 17,3 14 8 27 14 W 1022,8 52 56 0,0
04.07.2020 18:00:00 25,3 13,5 30,2 19,0 17,3 16 9 29 16 W 1023,1 16 60 0,0
04.07.2020 17:00:00 25,0 12,6 32,0 18,7 17,3 11 6 27 14 W 1023,5 54 60 0,0
04.07.2020 16:00:00 24,6 12,9 32,2 18,4 17,3 15 8 27 15 W 1024,0 59 60 0,0
04.07.2020 15:00:00 23,6 12,6 32,2 18,1 17,3 14 7 26 14 WNW 1024,1 60 60 0,0
04.07.2020 14:00:00 22,8 11,8 29,6 18,0 17,3 8 5 24 13 W 1024,5 20 55 0,0
04.07.2020 13:00:00 21,9 12,2 23,5 17,8 17,3 10 6 22 12 WNW 1024,9 60 47 0,0
04.07.2020 12:00:00 20,9 12,1 22,7 17,7 17,3 9 5 30 16 W 1025,2 51 50 0,0
04.07.2020 11:00:00 20,0 12,7 27,3 17,8 17,3 7 4 16 9 WNW 1025,4 57 60 0,0
04.07.2020 10:00:00 18,5 13,8 22,7 17,8 17,3 4 2 8 5 WNW 1025,3 54 60 0,0
04.07.2020 09:00:00 15,6 12,7 14,7 18,0 17,3 3 1 8 5 NW 1025,2 38 60 0,0
04.07.2020 08:00:00 12,4 11,6 6,9 18,1 17,3 3 2 5 3 ENE 1024,8 20 54 0,0
04.07.2020 07:00:00 8,7 8,2 4,4 18,3 17,3 2 1 3 1 SSE 1024,7 19 17 0,0
04.07.2020 06:00:00 8,8 8,5 4,3 18,4 17,3 2 1 4 2 E 1024,4 18 0 0,2
04.07.2020 05:00:00 9,5 9,0 4,9 18,6 17,3 0 0 3 1 N 1024,3 16 0 0,0
04.07.2020 04:00:00 10,1 9,2 5,2 18,7 17,3 2 1 5 3 ENE 1024,7 19 0 0,0
04.07.2020 03:00:00 11,5 10,1 6,5 18,8 17,3 4 2 9 5 SW 1024,8 45 0 0,0
04.07.2020 02:00:00 12,9 10,8 8,8 19,0 17,3 7 4 10 6 SW 1025,1 57 0 0,0
04.07.2020 01:00:00 13,7 10,9 8,7 19,1 17,3 6 3 14 7 WSW 1025,0 60 0 0,0
04.07.2020 00:00:00 14,5 11,1 11,1 19,1 17,3 9 5 16 8 WSW 1025,0 60 0 0,0
03.07.2020 23:00:00 15,4 10,8 11,6 19,2 17,3 9 5 16 9 W 1024,2 60 0 0,0
03.07.2020 22:00:00 17,3 10,9 14,4 19,2 17,3 12 6 22 12 W 1023,2 11 16 0,0
03.07.2020 21:00:00 21,0 11,3 20,9 19,1 17,3 17 9 27 15 WNW 1022,8 53 58 0,0
03.07.2020 20:00:00 21,1 11,1 21,0 19,1 17,3 16 9 27 15 NW 1022,6 56 12 0,0
03.07.2020 19:00:00 22,0 11,1 22,9 18,9 17,3 19 11 32 17 W 1022,5 60 23 0,0
03.07.2020 18:00:00 22,4 12,3 26,1 18,8 17,3 14 7 35 19 WNW 1022,7 19 50 0,0
03.07.2020 17:00:00 22,7 12,0 24,0 18,7 17,3 14 8 31 17 W 1022,8 45 49 0,0
03.07.2020 16:00:00 21,0 12,4 22,8 18,5 17,3 19 11 37 20 WNW 1023,2 60 6 0,0
03.07.2020 15:00:00 22,4 10,2 23,8 18,4 17,3 11 6 27 15 WNW 1023,1 39 22 0,0
03.07.2020 14:00:00 21,0 11,1 24,6 18,2 17,3 9 5 26 14 WNW 1023,5 58 23 0,0
03.07.2020 13:00:00 20,5 11,7 23,1 18,1 17,3 9 5 19 10 WNW 1023,8 60 21 0,0
03.07.2020 12:00:00 20,6 12,6 25,8 18,1 17,4 6 4 20 11 NNW 1023,8 59 49 0,0
03.07.2020 11:00:00 19,2 12,2 23,8 18,0 17,4 8 4 17 9 NNW 1023,9 57 50 0,0
03.07.2020 10:00:00 17,8 13,5 18,2 18,1 17,3 4 2 9 5 NNE 1023,7 50 44 0,0
03.07.2020 09:00:00 13,9 13,1 13,3 18,2 17,3 2 1 5 3 SE 1023,8 20 6 0,0
03.07.2020 08:00:00 11,7 11,7 7,3 18,3 17,3 0 0 4 2 N 1023,9 32 16 0,0
03.07.2020 07:00:00 9,4 9,3 5,7 18,5 17,3 2 1 5 3 ENE 1023,4 16 0 0,0
03.07.2020 06:00:00 9,5 9,0 5,7 18,7 17,3 2 1 3 2 SE 1023,0 17 0 0,0
03.07.2020 05:00:00 10,1 9,3 6,1 18,8 17,3 2 1 5 3 SSE 1022,9 4,3 0 0,0
03.07.2020 04:00:00 11,1 10,0 7,1 18,9 17,3 5 3 11 6 NW 1022,8 46 0 0,0
03.07.2020 03:00:00 11,8 10,5 7,9 19,1 17,3 8 4 11 6 WSW 1022,9 55 0 0,0
03.07.2020 02:00:00 11,7 10,1 7,3 19,2 17,3 5 3 9 5 SW 1022,8 59 0 0,0
03.07.2020 01:00:00 13,0 10,4 10,2 19,3 17,3 8 5 16 8 W 1022,6 60 0 0,0
03.07.2020 00:00:00 14,1 10,9 10,5 19,4 17,3 7 4 16 9 WSW 1022,1 60 0 0,0
02.07.2020 23:00:00 15,6 10,8 12,0 19,5 17,3 14 7 18 10 W 1021,4 60 0 0,0
02.07.2020 22:00:00 16,9 11,0 14,8 19,5 17,3 13 7 20 11 W 1020,5 14 13 0,0
02.07.2020 21:00:00 19,9 12,2 19,5 19,5 17,3 15 8 27 14 W 1019,9 51 50 0,0
02.07.2020 20:00:00 20,6 12,8 21,3 19,5 17,4 16 9 25 13 W 1019,7 60 30 0,0
02.07.2020 19:00:00 20,8 12,7 19,4 19,5 17,3 12 7 28 15 WNW 1019,6 44 9 0,0
02.07.2020 18:00:00 20,2 12,4 19,9 19,5 17,3 14 8 23 12 WNW 1019,3 60 6 0,0
02.07.2020 17:00:00 20,7 12,4 22,0 19,4 17,3 15 8 25 14 WNW 1019,2 57 0 0,0
02.07.2020 16:00:00 21,5 13,1 22,3 19,3 17,3 16 9 34 19 WNW 1018,8 60 2 0,0
02.07.2020 15:00:00 21,7 13,1 24,8 19,2 17,3 16 9 41 22 WNW 1018,7 60 14 0,0
02.07.2020 14:00:00 21,6 14,0 24,8 19,1 17,3 20 11 31 17 W 1018,8 20 22 0,0
02.07.2020 13:00:00 20,5 13,7 23,1 19,1 17,3 17 9 25 14 W 1018,9 60 0 0,0
02.07.2020 12:00:00 20,1 14,2 22,9 19,1 17,3 15 8 23 12 W 1018,3 20 0 0,0
02.07.2020 11:00:00 19,9 14,5 22,3 19,1 17,3 13 7 21 11 WNW 1018,0 20 1 0,0
02.07.2020 10:00:00 18,9 15,2 20,0 19,1 17,3 8 4 15 8 WNW 1018,0 20 0 0,0
02.07.2020 09:00:00 18,3 15,2 18,1 19,2 17,3 8 4 12 6 W 1017,7 53 0 0,0
02.07.2020 08:00:00 17,5 15,7 16,6 19,2 17,3 5 3 7 4 WSW 1017,5 48 0 0,0
02.07.2020 07:00:00 17,0 15,3 16,0 19,3 17,3 2 1 9 5 SSW 1017,0 49 0 0,0
02.07.2020 06:00:00 17,0 15,0 15,7 19,4 17,3 5 3 13 7 NW 1016,6 15 0 0,0
02.07.2020 05:00:00 16,5 15,7 13,4 19,5 17,3 6 3 10 6 WNW 1016,7 52 0 0,0
02.07.2020 04:00:00 15,4 14,9 12,5 19,6 17,3 4 2 6 4 WSW 1016,8 45 0 0,0
02.07.2020 03:00:00 15,7 14,9 12,4 19,7 17,3 0 0 7 4 N 1016,9 47 0 0,0
02.07.2020 02:00:00 16,9 15,6 14,1 19,7 17,3 5 3 16 9 WSW 1017,0 60 0 0,0
02.07.2020 01:00:00 18,1 15,9 16,6 19,8 17,3 11 6 28 15 W 1016,8 60 0 0,0
02.07.2020 00:00:00 20,2 16,4 19,2 19,8 17,3 14 8 24 13 WNW 1016,6 60 0 0,0
01.07.2020 23:00:00 20,9 17,1 20,2 19,8 17,3 16 8 26 14 WNW 1016,2 60 0 0,0
01.07.2020 22:00:00 21,4 17,2 20,5 19,9 17,3 9 5 14 8 WSW 1015,3 17 0 0,0
01.07.2020 21:00:00 21,8 17,6 21,5 19,8 17,3 4 2 13 7 SW 1014,9 60 0 0,0
01.07.2020 20:00:00 22,0 17,1 21,6 19,8 17,3 9 5 30 16 WNW 1014,8 60 0 0,0
01.07.2020 19:00:00 22,2 17,6 21,7 19,8 17,3 19 10 29 15 W 1014,7 59 0 0,0
01.07.2020 18:00:00 23,4 18,3 23,1 19,8 17,3 16 8 25 13 W 1014,5 56 0 0,0
01.07.2020 17:00:00 23,0 19,6 23,1 19,7 17,3 13 7 24 13 WSW 1014,3 44 0 0,0
01.07.2020 16:00:00 23,3 19,7 24,1 19,5 17,3 10 5 22 12 WSW 1014,0 51 0 0,0
01.07.2020 15:00:00 25,7 19,8 25,4 19,5 17,3 9 5 23 12 WNW 1013,5 48 23 0,0
01.07.2020 14:00:00 23,4 20,0 21,0 19,3 17,3 16 9 23 12 W 1013,6 20 0 0,4

tt = Température de l'air
td = dewpoint
tt 5cm = Température de l'air 5cm
tt -20cm = Température de l'air -20cm
tt -100cm = Température de l'air -100cm
ff = Vitesse du vent
fx = gusts
dd = Direction du vent
ppp = reduced air pressure
vv = visibility
sd = Ensoleillement
rr = Quantités de précipitations

stations d'obs. à proximité